{"data":{"norad_id":64334,"intl_designator":"2025-124T","name":"STARLINK-34260","alt_names":[],"object_type":"PAYLOAD","status":"ACTIVE","operator":null,"country":"US","launch_date":"2025-06-10","launch_site_code":"AFETR","launch_vehicle":null,"mission":null,"orbit_class":"UNKNOWN","rcs_meters":null,"size_class":null,"mass_kg":null,"dimensions":null,"purposes":["comms"],"wikipedia_slug":null,"has_3d_model":false,"image_url":null,"decayed_at":null,"tle_current":{"epoch":"2026-09-20T16:00:01.999584Z","epoch_age_seconds":119841,"freshness":"FRESH","line1":"1 64334U 25124T   26263.66668981 -.00017085  00000+0 -61256-3 0  9998","line2":"2 64334  42.9995 100.8097 0001254 266.0233 214.5314 15.27590788  5882","mean_motion":15.27590788,"eccentricity":0.0001254,"inclination_deg":42.9995,"raan_deg":100.8097,"arg_perigee_deg":266.0233,"mean_anomaly_deg":214.5314,"bstar":-0.00061256,"rev_number":588,"period_min":94.266082992378,"perigee_km":482.15640439115,"apogee_km":483.87718176245,"semimajor_km":6861.1537930768,"source":"CELESTRAK","updated_at":"2026-09-21T09:00:35.314126Z"}}}